Location: ??
(34.7707°N, 135.6540°E)
Time: 07:09:18
(UTC+00:00)

Tiangong - Pass Details

Date: 28 September 2021
Orbit: 382 x 385 km, 41.5° (Epoch: 17 October)

Event Time Altitude Azimuth Distance (km) Brightness Sun altitude
Exits shadow 18:58:00 31° 49° (NE) 694 2.8 -23.7°
Drops below altitude 10° 18:59:50 10° 60° (ENE) 1,395 4.9 -23.3°
Sets 19:01:55 0° 64° (ENE) 2,249 6.3 -22.9°
